Wind_Speed
9 8 9 9 9 10 10 9 9 10 10 10 10 10 10 10 10 10 10 10 11 12 12 12 11 12 13 13 13 14 14 14 14 14 14 15 16 17 17 17 20 21
9 8 8 9 9 10 11 10 10 10 10 10 10 10 11 11 10 10 11 11 11 12 12 11 10 11 12 13 13 13 14 14 15 15 15 15 16 17 17 17 18 20
9 9 9 9 9 10 10 10 11 10 10 10 10 10 11 10 10 11 11 11 12 12 11 11 11 11 12 13 13 13 13 14 15 15 15 15 16 16 17 18 19 19
9 9 9 9 9 10 10 10 10 10 10 11 11 11 11 10 10 11 11 11 11 11 11 10 11 11 12 12 13 13 13 14 14 15 15 15 15 16 16 18 19 19
8 8 8 8 8 9 9 9 10 10 10 10 11 11 11 11 11 11 11 11 11 12 11 10 10 11 12 12 13 13 12 13 14 15 16 14 14 15 16 17 18 18
9 8 8 8 8 9 9 9 10 10 10 10 10 10 11 11 12 12 12 12 12 12 11 10 10 11 11 12 12 12 12 13 13 13 14 14 13 14 14 16 17 18
10 10 9 9 9 10 10 10 9 9 10 10 10 9 10 10 11 12 12 13 13 12 11 11 11 11 11 11 11 12 12 13 13 13 13 14 13 14 15 15 17 18
10 10 10 10 10 10 10 10 10 10 9 10 10 9 9 10 10 11 12 13 13 12 11 11 11 12 12 11 12 12 12 13 13 13 13 13 14 15 15 16 16 18
10 10 11 11 11 10 10 10 10 10 10 10 10 10 10 10 10 10 11 12 13 12 11 10 11 11 12 12 12 12 13 13 13 13 13 14 15 16 16 17 17 19
11 11 11 12 11 11 11 11 10 10 10 10 10 11 11 10 10 10 10 11 12 12 12 11 10 11 12 12 13 13 13 14 13 13 14 14 15 16 16 17 18 20
11 12 12 12 12 11 11 12 11 10 11 11 11 11 11 11 11 10 11 11 11 12 12 12 12 11 11 12 13 13 13 14 14 14 14 15 16 16 16 16 17 19
11 11 12 12 12 12 12 12 12 12 12 12 12 12 12 12 11 11 11 11 11 12 12 12 13 13 12 11 12 13 13 14 15 16 15 15 15 16 17 17 17 18
12 11 12 12 12 13 13 13 13 13 13 13 13 13 13 12 12 12 12 12 12 12 12 12 13 13 13 12 11 11 12 13 15 16 17 16 16 17 18 18 19 19
12 12 12 12 12 13 14 14 14 14 14 14 14 14 14 13 13 13 14 13 12 12 12 12 13 13 13 12 10 10 11 12 13 14 15 17 17 17 18 19 20 20
13 13 12 13 13 14 14 15 16 16 16 16 15 15 14 14 14 14 14 14 14 13 12 12 12 12 11 10 11 11 11 11 12 13 14 16 18 19 19 18 19 20
13 13 13 14 14 14 15 16 16 17 17 17 17 16 15 14 15 15 14 14 14 14 13 13 12 11 10 11 12 12 12 12 12 12 13 14 17 19 19 19 19 20
14 14 14 15 15 15 16 16 16 17 17 18 18 17 16 15 14 15 14 14 14 14 14 14 13 11 11 13 13 12 13 13 13 13 13 14 16 17 18 18 19 21
15 15 15 15 15 16 16 16 16 16 17 18 19 18 17 16 15 15 15 14 14 14 15 15 14 13 13 14 14 14 13 13 14 14 14 14 16 17 17 17 17 19
16 16 16 16 16 16 16 16 16 16 17 18 19 20 19 18 17 16 15 15 15 15 15 16 15 13 13 14 15 15 14 13 14 15 15 16 17 17 17 16 16 18
17 17 17 17 16 16 16 16 16 16 17 17 18 19 19 19 19 18 17 16 15 15 16 16 16 14 15 16 16 16 16 16 16 16 16 17 17 17 17 16 16 16
19 18 18 17 16 16 16 16 17 16 17 17 18 19 19 19 19 19 18 17 16 16 16 16 16 15 16 18 18 19 19 18 17 16 16 16 16 16 16 15 15 15
20 20 19 17 16 17 18 17 17 17 17 17 18 18 19 19 19 19 19 18 17 17 17 17 16 15 16 17 19 19 18 17 16 16 16 16 16 16 16 15 15 14
21 21 20 18 18 18 19 18 18 18 17 17 17 18 19 19 19 19 19 18 18 17 17 18 17 15 15 17 18 17 17 16 16 16 16 16 17 16 16 15 15 14
21 21 21 19 19 19 19 19 19 18 18 17 17 18 19 19 19 20 19 18 18 18 17 17 17 16 15 15 15 16 16 16 16 16 17 16 16 16 15 15 15 15
21 21 20 20 20 20 20 19 18 18 18 18 18 18 18 18 18 19 19 19 18 17 17 17 17 16 14 13 13 14 16 17 17 16 17 17 16 16 16 15 15 14
20 20 20 20 20 20 19 18 18 17 17 18 18 18 17 17 17 17 18 18 18 17 17 17 16 16 15 14 13 12 14 17 17 16 17 18 17 17 16 16 15 14
Wind_Direction
21 10 358 348 343 342 337 330 324 316 310 308 308 311 312 309 304 298 290 280 274 271 268 263 258 256 257 257 254 252 253 252 250 251 248 245 244 240 239 235 232 234
29 19 9 360 354 352 347 342 337 328 321 317 315 315 312 309 306 300 294 287 279 276 272 267 261 259 260 262 260 256 254 254 253 253 249 247 246 243 238 236 234 233
26 20 14 7 1 356 351 348 344 339 333 326 320 317 313 308 304 300 296 288 282 281 278 271 263 259 260 262 262 260 257 256 255 253 249 247 245 242 237 234 233 231
20 17 11 5 1 354 351 349 346 343 338 334 331 326 319 311 304 301 297 289 282 283 280 276 269 261 261 262 260 257 254 255 255 251 249 249 245 239 235 232 232 231
6 6 2 358 355 350 348 346 343 342 336 334 335 330 325 321 314 306 299 292 286 284 284 282 275 266 262 263 262 259 255 254 256 252 249 250 246 238 232 231 234 233
357 354 350 347 347 345 344 343 340 339 334 331 329 325 325 325 321 316 309 302 295 291 292 290 284 276 269 266 266 264 262 259 258 255 252 251 249 242 232 230 233 235
354 348 343 337 336 336 337 338 336 335 331 328 323 319 319 318 318 320 318 314 308 301 299 295 290 286 280 274 271 268 266 265 261 255 252 251 250 247 241 234 232 235
345 341 337 332 328 328 331 333 333 332 329 325 322 318 316 313 314 317 317 318 316 311 306 298 292 288 283 279 275 272 269 267 263 255 251 250 248 245 244 240 236 236
337 333 330 328 327 326 331 333 331 330 328 324 321 318 315 313 311 311 311 313 314 314 312 304 295 289 284 280 277 275 272 269 267 262 256 252 248 244 241 241 240 239
332 330 326 326 327 326 330 333 332 329 327 325 322 319 317 313 309 307 305 306 308 311 312 310 303 293 286 282 277 274 273 272 271 267 262 258 255 251 245 240 240 241
328 328 327 327 327 326 329 330 329 329 327 325 323 321 318 314 311 308 305 303 304 306 309 310 308 300 292 287 283 279 276 274 274 272 267 263 260 258 253 246 243 244
326 325 324 326 326 327 328 328 327 327 325 323 321 319 317 315 313 311 306 303 302 302 303 305 306 304 297 290 286 282 277 273 272 272 272 268 264 262 260 255 251 249
330 326 325 326 326 327 326 326 325 325 324 323 320 317 315 314 312 311 308 305 302 301 300 300 301 302 299 293 289 285 281 277 273 270 270 270 268 266 265 262 259 257
333 330 329 328 327 326 325 325 324 323 321 319 319 317 314 312 310 309 308 305 302 300 299 299 297 296 298 298 299 297 292 288 283 277 272 269 269 269 267 265 262 261
331 330 330 329 328 327 325 324 323 322 320 318 317 317 314 311 307 305 306 304 302 299 298 298 296 294 296 303 310 310 302 294 290 285 279 273 272 272 269 267 265 263
330 329 330 329 329 326 324 323 322 321 320 317 316 315 313 311 307 304 305 303 301 300 299 298 296 294 295 299 306 308 304 299 293 286 282 279 277 275 271 271 270 267
329 328 328 327 327 325 323 322 322 321 319 317 316 314 313 311 307 305 306 305 302 300 299 298 297 296 296 299 305 308 304 301 296 288 284 280 278 276 273 273 273 271
327 326 325 324 323 322 322 321 320 320 319 317 316 315 313 311 309 309 308 307 304 300 298 298 297 298 299 301 308 311 307 300 294 288 283 277 274 274 274 273 273 274
327 326 323 322 322 320 320 319 317 317 317 317 315 314 313 311 310 311 311 309 306 303 301 300 299 301 299 298 305 311 310 303 292 284 281 278 275 274 275 275 274 273
328 326 323 323 322 320 318 316 314 314 314 314 313 311 311 311 311 312 313 311 308 305 304 302 302 305 302 300 306 312 312 305 294 283 278 276 274 274 274 275 274 272
328 325 322 323 321 318 316 314 313 313 311 312 311 309 308 309 310 310 311 311 310 307 306 303 303 306 306 305 307 310 311 306 294 283 278 275 273 272 270 268 269 269
326 322 321 321 317 315 316 315 314 312 310 310 309 307 307 306 306 307 307 308 309 308 305 304 305 308 308 306 308 310 311 307 295 285 283 280 276 275 272 269 266 265
322 320 319 318 317 317 318 317 315 312 309 309 308 307 306 305 304 304 304 305 307 307 306 306 307 310 310 308 312 317 317 309 298 290 287 284 281 281 279 276 272 269
322 321 321 323 323 322 320 316 314 311 309 310 309 306 304 304 304 304 304 306 307 308 308 308 306 308 311 311 314 321 319 311 303 297 292 288 287 285 282 279 278 275
325 325 327 328 326 323 321 317 315 312 310 313 313 308 305 306 306 307 308 309 310 311 311 310 308 311 316 316 316 322 322 317 311 303 297 294 292 291 288 284 280 277
327 327 329 328 324 322 321 320 318 316 315 317 317 313 310 310 310 311 313 316 320 322 320 317 317 322 327 325 320 322 326 323 316 309 305 306 307 303 296 290 285 282
Height
819 818 817 816 814 813 812 811 810 809 808 806 805 804 803 802 801 800 799 798 797 796 795 795 794 794 793 792 792 792 792 792 793 793 793 793 792 792 792 792 792 792
819 819 818 816 815 814 813 811 810 809 807 806 805 804 803 802 801 800 799 798 796 795 794 793 793 793 792 791 791 791 791 791 791 791 790 790 790 790 790 790 790 790
821 819 818 817 816 815 813 812 810 809 808 806 805 804 802 801 800 799 798 797 796 794 793 793 792 792 791 791 790 790 789 789 789 789 788 788 787 787 787 787 786 786
822 820 819 817 816 815 813 812 811 809 808 806 805 803 802 801 800 798 798 796 795 794 792 791 791 790 790 790 789 789 788 788 787 787 786 786 785 785 784 784 784 783
822 821 819 818 816 815 813 812 811 809 808 806 805 803 802 800 799 798 797 795 794 792 791 790 790 789 789 788 788 787 786 786 785 784 784 783 783 783 781 781 781 781
822 821 819 818 816 815 813 812 811 809 807 806 805 803 802 800 799 797 795 794 792 791 790 790 789 788 788 787 786 786 785 784 783 783 782 781 781 781 780 779 778 778
822 821 819 818 816 815 813 812 810 809 807 806 804 803 802 800 799 797 795 793 792 790 789 789 788 787 786 785 785 784 783 782 782 781 781 780 780 779 778 777 776 775
823 821 819 817 816 814 813 811 810 808 807 806 804 803 801 799 798 796 795 793 791 790 788 787 787 786 785 784 783 782 781 781 780 780 779 778 777 777 776 775 774 773
822 820 819 817 815 814 812 811 810 808 807 805 804 802 800 799 797 795 794 792 791 789 788 787 786 785 784 783 782 781 780 779 779 778 777 776 775 774 774 773 772 771
822 820 819 817 815 814 812 811 809 808 806 805 803 801 799 798 796 794 793 791 790 789 787 786 785 784 783 782 780 779 778 777 777 776 776 774 773 772 771 770 769 768
822 820 819 817 815 814 812 810 809 807 806 804 802 801 799 797 795 794 792 790 789 788 786 785 783 782 781 780 779 778 777 776 775 775 774 773 771 770 769 768 767 766
821 820 818 816 815 813 811 810 808 806 805 803 802 800 798 796 794 793 791 789 788 786 785 784 782 781 779 778 777 776 775 775 774 773 772 771 770 769 767 766 765 764
820 819 817 816 814 812 811 809 807 806 804 802 801 799 797 795 793 792 790 788 787 785 784 783 781 779 778 776 775 775 774 773 772 771 770 769 768 766 765 765 764 763
819 818 816 815 813 811 810 808 806 805 803 801 800 798 796 794 792 791 789 787 785 784 782 781 780 778 777 775 774 773 773 772 771 769 768 767 765 764 763 762 762 761
818 817 815 814 812 811 809 807 805 803 801 800 798 797 795 793 791 789 787 785 784 782 781 780 778 777 776 774 773 772 772 771 769 768 766 765 763 762 761 760 760 760
817 815 814 812 811 809 808 806 804 802 800 798 796 795 794 792 790 788 786 784 782 781 779 778 777 776 774 773 772 771 770 769 768 766 765 763 761 760 759 758 758 758
816 814 813 811 810 808 806 805 803 801 799 797 795 793 792 790 788 786 784 783 781 779 778 776 775 774 773 772 771 770 769 767 766 765 763 762 760 758 757 756 756 755
815 814 812 811 809 807 805 803 802 800 798 796 794 792 790 788 786 785 783 781 780 778 776 775 774 772 771 771 769 768 767 765 764 763 761 760 758 756 755 755 754 753
814 812 811 809 808 806 804 802 801 799 797 795 793 790 788 786 784 783 781 780 778 777 775 773 772 771 770 769 768 766 765 764 762 761 759 758 756 754 753 752 752 751
813 811 810 808 806 805 803 801 800 798 796 794 792 790 787 785 783 781 780 779 777 776 774 772 770 769 768 767 766 765 763 762 760 759 757 755 754 752 751 751 750 749
812 810 809 807 805 804 802 800 798 797 795 793 791 789 787 784 782 780 778 777 776 774 773 771 769 768 767 766 764 763 761 759 758 756 755 753 752 750 749 749 748 747
811 809 808 806 804 802 800 798 797 795 794 792 790 788 786 783 781 779 777 776 774 773 771 769 768 767 765 764 763 762 760 757 756 754 752 751 749 748 747 746 746 745
810 808 806 804 803 801 799 797 795 794 792 791 789 787 784 782 780 778 776 774 772 771 769 767 766 765 764 763 762 760 758 756 754 752 750 748 747 746 745 744 743 743
810 807 805 803 802 800 798 796 794 793 791 789 788 786 783 781 778 776 774 773 771 770 768 766 764 763 762 761 760 759 757 755 753 751 748 747 745 743 743 741 740 740
809 807 805 803 801 799 797 796 793 791 789 788 786 784 782 780 777 775 773 771 770 769 767 765 763 762 761 760 759 758 756 754 752 750 747 745 743 742 740 739 738 738
809 807 805 802 801 799 797 795 793 790 789 787 785 782 780 778 776 774 772 770 769 768 766 764 762 761 761 760 758 757 755 753 751 749 746 744 742 740 739 737 736 736